Location: Westminster
(33.3626°N, 96.4619°W)
Time: 14:55:10
(UTC+00:00)

OAO 3 Rocket - Visible Passes

Search period start: 03 July 2022 00:00
Search period end: 13 July 2022 00:00
Orbit: 628 x 681 km, 35.0° (Epoch: 02 July)

Date Brightness Start Highest point End Pass type
(mag) Time Alt. Az. Time Alt. Az. Time Alt. Az.
03 Jul 3.8 08:16:04 54° ENE 08:16:04 54° ENE 08:19:56 10° E visible
03 Jul 3.3 09:53:50 11° W 09:58:39 80° N 10:03:35 10° E visible
04 Jul 3.3 08:42:37 64° NW 08:43:12 72° N 08:48:10 10° E visible
04 Jul 3.2 10:21:52 10° WNW 10:26:50 76° SSW 10:31:45 10° ESE visible
05 Jul 5.5 07:31:33 17° ENE 07:31:33 17° ENE 07:32:43 10° E visible
05 Jul 3.2 09:09:20 35° WNW 09:11:27 82° N 09:16:25 10° E visible
05 Jul 3.6 10:50:08 10° W 10:54:52 46° SSW 10:59:34 10° SE visible
06 Jul 4.8 07:58:32 29° E 07:58:32 29° E 08:00:58 10° E visible
06 Jul 3.1 09:36:20 21° W 09:39:37 73° SSW 09:44:33 10° ESE visible
07 Jul 4.0 08:25:51 44° E 08:25:51 44° E 08:29:14 10° E visible
07 Jul 3.6 10:03:42 14° W 10:07:39 43° SSW 10:12:18 10° SE visible
08 Jul 5.0 03:37:36 10° SW 03:39:00 18° SSW 03:39:00 18° SSW visible
08 Jul 3.7 08:53:40 48° SE 08:53:40 48° SE 08:57:20 10° ESE visible
08 Jul 4.4 10:31:40 10° W 10:35:31 23° SSW 10:39:22 10° SSE visible
09 Jul 4.6 02:23:40 10° S 02:26:52 18° SSE 02:29:32 12° ESE visible
09 Jul 4.5 04:05:08 10° WSW 04:07:25 27° SW 04:07:25 27° SW visible
09 Jul 4.2 09:21:57 31° SSE 09:21:57 31° SSE 09:25:02 10° SE visible
10 Jul 3.7 02:50:22 10° SW 02:54:42 35° SSE 02:57:31 19° E visible
10 Jul 4.7 04:33:09 10° WSW 04:35:22 27° WSW 04:35:22 27° WSW visible
10 Jul 5.0 09:50:37 15° S 09:50:37 15° S 09:51:58 10° SSE visible
11 Jul 3.1 03:17:58 10° WSW 03:22:40 64° SSE 03:25:01 29° E visible
11 Jul 5.3 05:01:22 10° W 05:02:50 20° W 05:02:50 20° W visible
12 Jul 3.7 02:03:08 10° SW 02:07:29 38° SSE 02:11:56 10° E visible
12 Jul 3.1 03:46:00 10° W 03:50:47 87° NNW 03:52:07 49° ENE visible
12 Jul 5.9 05:29:36 10° W 05:29:54 12° W 05:29:54 12° W visible
